Time,TemperatureF,DewpointF,PressureIn,WindDirection,WindDirectionDegrees,WindSpeedMPH,WindSpeedGustMPH,Humidity,HourlyPrecipIn,Conditions,Clouds,dailyrainin,SoftwareType,DateUTC
2013-03-11 00:03:00,35.0,32.0,29.82,South,183,0.0,0.0,90,0.00,,,0.00,,2013-03-11 04:03:00,
2013-03-11 00:12:00,35.0,32.0,29.82,South,183,0.0,0.0,90,0.00,,,0.00,,2013-03-11 04:12:00,
2013-03-11 00:22:00,35.0,32.0,29.82,South,183,0.0,1.0,90,0.00,,,0.00,,2013-03-11 04:22:00,
2013-03-11 00:33:00,35.0,32.0,29.81,South,183,0.0,1.0,90,0.00,,,0.00,,2013-03-11 04:33:00,
2013-03-11 00:42:00,35.0,32.0,29.81,South,183,0.0,1.0,90,0.00,,,0.00,,2013-03-11 04:42:00,
2013-03-11 00:52:00,35.0,32.0,29.81,South,183,0.0,1.0,90,0.00,,,0.00,,2013-03-11 04:52:00,
2013-03-11 01:03:00,35.0,32.0,29.81,South,182,0.0,2.0,90,0.00,,,0.00,,2013-03-11 05:03:00,
2013-03-11 01:12:00,35.0,32.0,29.81,South,182,0.0,2.0,90,0.00,,,0.00,,2013-03-11 05:12:00,
2013-03-11 01:22:00,35.0,32.0,29.82,South,182,0.0,0.0,90,0.00,,,0.00,,2013-03-11 05:22:00,
2013-03-11 01:32:00,35.0,32.0,29.82,South,182,0.0,0.0,90,0.00,,,0.00,,2013-03-11 05:32:00,
2013-03-11 01:42:00,35.0,32.0,29.82,South,182,0.0,0.0,90,0.00,,,0.00,,2013-03-11 05:42:00,
2013-03-11 01:52:00,35.0,32.0,29.79,South,182,0.0,1.0,90,0.00,,,0.00,,2013-03-11 05:52:00,
2013-03-11 02:02:00,35.0,32.0,29.79,South,182,0.0,1.0,90,0.00,,,0.00,,2013-03-11 06:02:00,
2013-03-11 02:12:00,35.0,32.0,29.79,South,182,0.0,1.0,90,0.00,,,0.00,,2013-03-11 06:12:00,
2013-03-11 02:22:00,35.0,33.0,29.80,South,182,0.0,0.0,91,0.00,,,0.00,,2013-03-11 06:22:00,
2013-03-11 02:33:00,35.0,33.0,29.79,South,182,0.0,2.0,91,0.00,,,0.00,,2013-03-11 06:33:00,
2013-03-11 02:42:00,35.0,33.0,29.79,South,182,0.0,2.0,91,0.00,,,0.00,,2013-03-11 06:42:00,
2013-03-11 02:52:00,35.0,33.0,29.78,South,182,0.0,2.0,91,0.00,,,0.00,,2013-03-11 06:52:00,
2013-03-11 03:03:00,35.0,33.0,29.79,South,182,0.0,1.0,91,0.00,,,0.00,,2013-03-11 07:03:00,
2013-03-11 03:12:00,35.0,33.0,29.79,South,182,0.0,0.0,91,0.00,,,0.00,,2013-03-11 07:12:00,
2013-03-11 03:22:00,35.0,33.0,29.79,South,182,0.0,0.0,91,0.00,,,0.00,,2013-03-11 07:22:00,
2013-03-11 03:32:00,35.0,33.0,29.78,South,182,0.0,0.0,91,0.00,,,0.00,,2013-03-11 07:32:00,
2013-03-11 03:42:00,35.0,33.0,29.78,South,182,0.0,0.0,91,0.00,,,0.00,,2013-03-11 07:42:00,
2013-03-11 03:52:00,35.0,33.0,29.78,South,182,0.0,0.0,91,0.00,,,0.00,,2013-03-11 07:52:00,
2013-03-11 04:02:00,35.0,33.0,29.77,South,182,0.0,0.0,91,0.00,,,0.00,,2013-03-11 08:02:00,
2013-03-11 04:12:00,35.0,33.0,29.77,South,182,0.0,0.0,91,0.00,,,0.00,,2013-03-11 08:12:00,
2013-03-11 04:22:00,35.0,33.0,29.78,South,182,0.0,0.0,91,0.00,,,0.00,,2013-03-11 08:22:00,
2013-03-11 04:33:00,35.0,33.0,29.77,South,182,0.0,0.0,91,0.00,,,0.00,,2013-03-11 08:33:00,
2013-03-11 04:42:00,35.0,33.0,29.77,South,182,0.0,0.0,91,0.00,,,0.00,,2013-03-11 08:42:00,
2013-03-11 04:52:00,35.0,33.0,29.76,South,182,0.0,1.0,92,0.00,,,0.00,,2013-03-11 08:52:00,
2013-03-11 05:02:00,35.0,33.0,29.76,South,182,0.0,1.0,92,0.00,,,0.00,,2013-03-11 09:02:00,
2013-03-11 05:12:00,35.0,33.0,29.76,South,182,0.0,1.0,92,0.00,,,0.00,,2013-03-11 09:12:00,
2013-03-11 05:23:00,35.0,33.0,29.76,South,182,0.0,0.0,92,0.00,,,0.00,,2013-03-11 09:23:00,
2013-03-11 05:32:00,35.0,33.0,29.76,South,182,0.0,0.0,93,0.00,,,0.00,,2013-03-11 09:32:00,
2013-03-11 05:42:00,35.0,33.0,29.76,South,182,0.0,0.0,93,0.00,,,0.00,,2013-03-11 09:42:00,
2013-03-11 05:52:00,35.0,33.0,29.75,South,182,0.0,0.0,93,0.00,,,0.00,,2013-03-11 09:52:00,
2013-03-11 06:02:00,35.0,33.0,29.76,South,182,0.0,0.0,93,0.00,,,0.00,,2013-03-11 10:02:00,
2013-03-11 06:12:00,35.0,33.0,29.76,South,182,0.0,0.0,93,0.00,,,0.00,,2013-03-11 10:12:00,
2013-03-11 06:22:00,36.0,34.0,29.75,South,182,0.0,0.0,93,0.00,,,0.00,,2013-03-11 10:22:00,
2013-03-11 06:32:00,36.0,34.0,29.75,South,182,0.0,0.0,93,0.00,,,0.00,,2013-03-11 10:32:00,
2013-03-11 06:42:00,36.0,34.0,29.75,South,182,0.0,0.0,93,0.00,,,0.00,,2013-03-11 10:42:00,
2013-03-11 06:52:00,36.0,34.0,29.75,South,182,0.0,1.0,93,0.00,,,0.00,,2013-03-11 10:52:00,
2013-03-11 07:02:00,36.0,34.0,29.75,South,182,0.0,0.0,93,0.00,,,0.00,,2013-03-11 11:02:00,
2013-03-11 07:12:00,36.0,34.0,29.75,South,182,0.0,0.0,93,0.00,,,0.00,,2013-03-11 11:12:00,
2013-03-11 07:22:00,36.0,34.0,29.75,South,182,0.0,0.0,93,0.00,,,0.00,,2013-03-11 11:22:00,
2013-03-11 07:33:00,36.0,34.0,29.75,South,182,0.0,1.0,93,0.00,,,0.00,,2013-03-11 11:33:00,
2013-03-11 07:42:00,36.0,34.0,29.75,South,182,0.0,1.0,93,0.00,,,0.00,,2013-03-11 11:42:00,
2013-03-11 07:52:00,36.0,34.0,29.75,South,182,0.0,0.0,94,0.00,,,0.00,,2013-03-11 11:52:00,
2013-03-11 08:02:00,36.0,34.0,29.75,South,182,0.0,1.0,93,0.00,,,0.00,,2013-03-11 12:02:00,
2013-03-11 08:12:00,36.0,34.0,29.75,South,182,0.0,1.0,93,0.00,,,0.00,,2013-03-11 12:12:00,
2013-03-11 08:22:00,36.0,34.0,29.74,South,182,0.0,1.0,93,0.00,,,0.00,,2013-03-11 12:22:00,
2013-03-11 08:33:00,37.0,35.0,29.75,South,182,0.0,0.0,93,0.00,,,0.00,,2013-03-11 12:33:00,
2013-03-11 08:43:00,37.0,35.0,29.75,South,182,0.0,0.0,93,0.00,,,0.00,,2013-03-11 12:43:00,
2013-03-11 08:52:00,37.0,35.0,29.75,South,182,0.0,0.0,93,0.00,,,0.00,,2013-03-11 12:52:00,
2013-03-11 09:03:00,37.0,35.0,29.76,South,182,0.0,2.0,93,0.00,,,0.00,,2013-03-11 13:03:00,
2013-03-11 09:12:00,37.0,35.0,29.76,South,182,0.0,2.0,93,0.00,,,0.00,,2013-03-11 13:12:00,
2013-03-11 09:22:00,38.0,36.0,29.76,South,182,0.0,3.0,93,0.00,,,0.00,,2013-03-11 13:22:00,
2013-03-11 09:33:00,38.0,36.0,29.76,SSE,166,0.0,3.0,92,0.00,,,0.00,,2013-03-11 13:33:00,
2013-03-11 09:42:00,38.0,36.0,29.76,SSE,166,0.0,3.0,92,0.00,,,0.00,,2013-03-11 13:42:00,
2013-03-11 09:52:00,39.0,37.0,29.76,SSE,166,0.0,1.0,92,0.00,,,0.00,,2013-03-11 13:52:00,
2013-03-11 10:02:00,39.0,37.0,29.76,South,171,0.0,4.0,92,0.00,,,0.00,,2013-03-11 14:02:00,
2013-03-11 10:12:00,39.0,37.0,29.76,South,171,0.0,4.0,92,0.00,,,0.00,,2013-03-11 14:12:00,
2013-03-11 10:22:00,40.0,38.0,29.76,South,186,0.0,3.0,91,0.00,,,0.00,,2013-03-11 14:22:00,
2013-03-11 10:33:00,41.0,39.0,29.77,South,186,0.0,2.0,91,0.00,,,0.00,,2013-03-11 14:33:00,
2013-03-11 10:42:00,41.0,39.0,29.77,South,186,0.0,2.0,91,0.00,,,0.00,,2013-03-11 14:42:00,
2013-03-11 10:52:00,41.0,38.0,29.77,SE,125,0.0,3.0,90,0.00,,,0.00,,2013-03-11 14:52:00,
2013-03-11 11:03:00,42.0,39.0,29.76,SSE,162,0.0,3.0,89,0.00,,,0.00,,2013-03-11 15:03:00,
2013-03-11 11:13:00,42.0,39.0,29.76,SSE,162,0.0,3.0,89,0.00,,,0.00,,2013-03-11 15:13:00,
2013-03-11 11:22:00,43.0,39.0,29.76,SE,144,0.0,3.0,87,0.00,,,0.00,,2013-03-11 15:22:00,
2013-03-11 11:32:00,44.0,40.0,29.76,SSE,167,0.0,5.0,85,0.00,,,0.00,,2013-03-11 15:32:00,
2013-03-11 11:42:00,44.0,40.0,29.76,SSE,167,0.0,5.0,85,0.00,,,0.00,,2013-03-11 15:42:00,
2013-03-11 11:53:00,44.0,40.0,29.76,SSE,167,0.0,5.0,85,0.00,,,0.00,,2013-03-11 15:53:00,
2013-03-11 12:03:00,45.0,40.0,29.73,SSE,165,2.0,5.0,84,0.00,,,0.00,,2013-03-11 16:03:00,
2013-03-11 12:12:00,45.0,40.0,29.73,SSE,165,2.0,5.0,84,0.00,,,0.00,,2013-03-11 16:12:00,
2013-03-11 12:22:00,45.0,40.0,29.73,SW,227,0.0,4.0,83,0.00,,,0.00,,2013-03-11 16:22:00,
2013-03-11 12:32:00,46.0,41.0,29.74,ENE,70,0.0,3.0,83,0.00,,,0.00,,2013-03-11 16:32:00,
2013-03-11 12:43:00,46.0,41.0,29.74,ENE,70,0.0,3.0,83,0.00,,,0.00,,2013-03-11 16:43:00,
2013-03-11 12:52:00,46.0,41.0,29.74,ENE,70,0.0,3.0,83,0.00,,,0.00,,2013-03-11 16:52:00,
2013-03-11 13:02:00,47.0,41.0,29.74,South,181,1.0,3.0,80,0.00,,,0.00,,2013-03-11 17:02:00,
2013-03-11 13:15:00,47.0,41.0,29.74,South,181,1.0,3.0,80,0.00,,,0.00,,2013-03-11 17:15:00,
2013-03-11 13:28:00,48.0,41.0,29.72,South,186,0.0,4.0,78,0.00,,,0.00,,2013-03-11 17:28:00,
2013-03-11 13:37:00,48.0,41.0,29.72,South,186,0.0,4.0,78,0.00,,,0.00,,2013-03-11 17:37:00,
2013-03-11 13:42:00,48.0,41.0,29.72,South,186,0.0,4.0,78,0.00,,,0.00,,2013-03-11 17:42:00,
2013-03-11 13:53:00,49.0,42.0,29.72,ESE,122,3.0,6.0,77,0.00,,,0.00,,2013-03-11 17:53:00,
2013-03-11 14:02:00,49.0,42.0,29.72,ESE,122,3.0,6.0,77,0.00,,,0.00,,2013-03-11 18:02:00,
2013-03-11 14:12:00,49.0,42.0,29.72,ESE,122,3.0,6.0,77,0.00,,,0.00,,2013-03-11 18:12:00,
2013-03-11 14:23:00,50.0,42.0,29.70,SSW,209,0.0,4.0,75,0.00,,,0.00,,2013-03-11 18:23:00,
2013-03-11 14:33:00,50.0,42.0,29.70,South,182,1.0,6.0,74,0.00,,,0.00,,2013-03-11 18:33:00,
2013-03-11 14:42:00,50.0,42.0,29.70,South,182,1.0,6.0,74,0.00,,,0.00,,2013-03-11 18:42:00,
2013-03-11 14:52:00,50.0,42.0,29.70,South,169,2.0,5.0,73,0.00,,,0.00,,2013-03-11 18:52:00,
2013-03-11 15:02:00,50.0,42.0,29.70,SSE,150,1.0,8.0,73,0.00,,,0.00,,2013-03-11 19:02:00,
2013-03-11 15:12:00,50.0,42.0,29.70,SSE,150,1.0,8.0,73,0.00,,,0.00,,2013-03-11 19:12:00,
2013-03-11 15:22:00,49.0,41.0,29.69,South,189,2.0,8.0,74,0.00,,,0.00,,2013-03-11 19:22:00,
2013-03-11 15:33:00,50.0,42.0,29.68,SSE,159,0.0,6.0,74,0.00,,,0.00,,2013-03-11 19:33:00,
2013-03-11 15:42:00,50.0,42.0,29.68,SSE,159,0.0,6.0,74,0.00,,,0.00,,2013-03-11 19:42:00,
2013-03-11 15:52:00,50.0,42.0,29.68,South,175,0.0,4.0,75,0.00,,,0.00,,2013-03-11 19:52:00,
2013-03-11 16:02:00,49.0,41.0,29.68,SSE,149,1.0,9.0,74,0.00,,,0.00,,2013-03-11 20:02:00,
2013-03-11 16:12:00,49.0,41.0,29.68,SSE,149,1.0,9.0,74,0.00,,,0.00,,2013-03-11 20:12:00,
2013-03-11 16:22:00,49.0,41.0,29.68,South,182,2.0,8.0,75,0.00,,,0.00,,2013-03-11 20:22:00,
2013-03-11 16:32:00,49.0,41.0,29.67,SSE,147,2.0,6.0,75,0.00,,,0.00,,2013-03-11 20:32:00,
2013-03-11 16:43:00,49.0,41.0,29.67,SSE,147,2.0,6.0,75,0.00,,,0.00,,2013-03-11 20:43:00,
2013-03-11 16:52:00,49.0,42.0,29.67,South,185,1.0,9.0,77,0.00,,,0.00,,2013-03-11 20:52:00,
2013-03-11 17:03:00,48.0,41.0,29.66,SE,125,2.0,7.0,78,0.00,,,0.00,,2013-03-11 21:03:00,
2013-03-11 17:22:00,48.0,42.0,29.66,SE,146,1.0,6.0,80,0.00,,,0.00,,2013-03-11 21:22:00,
2013-03-11 17:33:00,48.0,42.0,29.65,SSE,166,1.0,7.0,80,0.00,,,0.00,,2013-03-11 21:33:00,
2013-03-11 17:44:00,48.0,42.0,29.65,SSE,166,1.0,7.0,80,0.00,,,0.00,,2013-03-11 21:44:00,
2013-03-11 17:52:00,47.0,41.0,29.65,SSE,157,1.0,5.0,81,0.00,,,0.00,,2013-03-11 21:52:00,
2013-03-11 18:03:00,47.0,42.0,29.65,NNE,13,1.0,7.0,82,0.00,,,0.00,,2013-03-11 22:03:00,
2013-03-11 18:12:00,47.0,42.0,29.65,NNE,13,1.0,7.0,82,0.00,,,0.00,,2013-03-11 22:12:00,
2013-03-11 18:22:00,47.0,42.0,29.65,East,92,1.0,5.0,82,0.00,,,0.00,,2013-03-11 22:22:00,
2013-03-11 18:32:00,47.0,42.0,29.65,SSE,155,1.0,6.0,83,0.00,,,0.00,,2013-03-11 22:32:00,
2013-03-11 18:43:00,47.0,42.0,29.65,SSE,155,1.0,6.0,83,0.00,,,0.00,,2013-03-11 22:43:00,
2013-03-11 18:52:00,47.0,42.0,29.65,South,171,0.0,7.0,84,0.00,,,0.00,,2013-03-11 22:52:00,
2013-03-11 19:03:00,47.0,43.0,29.65,SSE,167,1.0,5.0,85,0.00,,,0.00,,2013-03-11 23:03:00,
2013-03-11 19:12:00,47.0,43.0,29.65,SSE,167,1.0,5.0,85,0.00,,,0.00,,2013-03-11 23:12:00,
2013-03-11 19:22:00,47.0,43.0,29.65,South,184,1.0,7.0,86,0.00,,,0.00,,2013-03-11 23:22:00,
2013-03-11 19:32:00,47.0,43.0,29.64,South,169,0.0,3.0,87,0.00,,,0.00,,2013-03-11 23:32:00,
2013-03-11 19:43:00,47.0,43.0,29.64,South,169,0.0,3.0,87,0.00,,,0.00,,2013-03-11 23:43:00,
2013-03-11 19:52:00,46.0,43.0,29.64,South,187,1.0,4.0,88,0.00,,,0.00,,2013-03-11 23:52:00,
2013-03-11 20:02:00,46.0,43.0,29.64,South,187,1.0,4.0,88,0.00,,,0.00,,2013-03-12 00:02:00,
2013-03-11 20:12:00,46.0,43.0,29.64,South,187,1.0,4.0,88,0.00,,,0.00,,2013-03-12 00:12:00,
2013-03-11 20:23:00,46.0,43.0,29.65,South,176,0.0,3.0,89,0.00,,,0.00,,2013-03-12 00:23:00,
2013-03-11 20:33:00,46.0,43.0,29.65,SE,128,0.0,3.0,89,0.00,,,0.00,,2013-03-12 00:33:00,
2013-03-11 20:43:00,46.0,43.0,29.65,SE,128,0.0,3.0,89,0.00,,,0.00,,2013-03-12 00:43:00,
2013-03-11 20:53:00,46.0,43.0,29.65,SE,128,0.0,3.0,89,0.00,,,0.00,,2013-03-12 00:53:00,
2013-03-11 21:02:00,46.0,43.0,29.65,South,177,0.0,3.0,90,0.00,,,0.00,,2013-03-12 01:02:00,
2013-03-11 21:12:00,46.0,43.0,29.65,South,177,0.0,3.0,90,0.00,,,0.00,,2013-03-12 01:12:00,
2013-03-11 21:22:00,46.0,44.0,29.65,SSE,153,0.0,1.0,91,0.00,,,0.00,,2013-03-12 01:22:00,
2013-03-11 21:33:00,46.0,44.0,29.64,SSE,158,0.0,3.0,91,0.00,,,0.00,,2013-03-12 01:33:00,
2013-03-11 21:42:00,46.0,44.0,29.64,SSE,158,0.0,3.0,91,0.00,,,0.00,,2013-03-12 01:42:00,
2013-03-11 21:52:00,46.0,44.0,29.63,South,170,2.0,5.0,91,0.00,,,0.00,,2013-03-12 01:52:00,
2013-03-11 22:02:00,46.0,44.0,29.62,SW,216,1.0,5.0,92,0.00,,,0.00,,2013-03-12 02:02:00,
2013-03-11 22:12:00,46.0,44.0,29.62,SW,216,1.0,5.0,92,0.00,,,0.00,,2013-03-12 02:12:00,
2013-03-11 22:22:00,46.0,44.0,29.62,SSE,165,1.0,5.0,92,0.00,,,0.00,,2013-03-12 02:22:00,
2013-03-11 22:32:00,46.0,44.0,29.63,South,169,0.0,5.0,92,0.00,,,0.00,,2013-03-12 02:32:00,
2013-03-11 22:42:00,46.0,44.0,29.63,South,169,0.0,5.0,92,0.00,,,0.00,,2013-03-12 02:42:00,
2013-03-11 22:52:00,46.0,44.0,29.62,South,175,0.0,5.0,93,0.00,,,0.00,,2013-03-12 02:52:00,
2013-03-11 23:02:00,46.0,44.0,29.62,South,171,1.0,7.0,93,0.00,,,0.00,,2013-03-12 03:02:00,
2013-03-11 23:12:00,46.0,44.0,29.62,South,171,1.0,7.0,93,0.00,,,0.00,,2013-03-12 03:12:00,
2013-03-11 23:22:00,46.0,44.0,29.62,South,182,1.0,5.0,93,0.00,,,0.00,,2013-03-12 03:22:00,
2013-03-11 23:32:00,46.0,44.0,29.62,SSE,148,0.0,4.0,93,0.00,,,0.00,,2013-03-12 03:32:00,
2013-03-11 23:42:00,46.0,44.0,29.62,SSE,148,0.0,4.0,93,0.00,,,0.00,,2013-03-12 03:42:00,
2013-03-11 23:53:00,46.0,44.0,29.61,South,175,2.0,6.0,93,0.00,,,0.00,,2013-03-12 03:53:00,